HINCUBE

导读

HINCUBE卫星于北京时间2013年11月21日08:00发射,归属挪威(NO),是一颗小型技术试验类立方星,属于全球微小卫星技术验证浪潮中的早期尝试。作为挪威航天领域的小型载荷项目,它旨在验证新型卫星平台与载荷技术,承载着航天技术探索使命,进入预定轨道后,为挪威后续微纳卫星发展积累了关键在轨数据与实践经验。

Basic Information
目录编号:
39445
目录名称:
HINCUBE
国际标识:
2013-066AF
轨道中心:
EARTH
卫星名称:
HINCUBE
卫星全名:
--
卫星状态:
在轨 (已飞行4671 天)
发射日期:
2013-11-21 UTC
国别 :
挪威 (NO)
星等 :
--
Orbit Information
数据来源 国际轨道数据
星历时间: 2026-09-05T04:55:23+0800
13小时前
查看轨道信息
半长轴: 6916.768km
偏心率: 0.0030925
轨道倾角: 97.806°
近地点辐角 301.606°
升交点赤经 217.676°
平近点角 58.215°
近地点: 517.24km
远地点: 560.022km
周期: 95.415分钟
每日圈数: 15.092041
Detailed Information
使用方式:
暂无
2D Orbit Map
3D Orbit Map
Orbit Altitude Analysis Chart
Orbit Inclination Analysis Chart
Orbit Comprehensive Analysis Chart
View Comprehensive Chart
Conjunction Data List
Event ID Objects TCA Miss Dist (km) Collision Risk Probability Collision Risk Index (CRI) Action
CDM_260906-023603-944504-933824
HINCUBE (39445)
2026-09-06T
02:36:58+0000
2.163 km
极远距离
2.356148E-6 低风险 0.42
CDM_260903-173303-944506-442621
HINCUBE (39445)
2026-09-03T
17:33:42+0000
2.461 km
极远距离
1.726916E-6 低风险 0.4
CDM_260905-181503-488403-944525
HINCUBE (39445)
2026-09-05T
18:15:13+0000
2.408 km
极远距离
8.556381E-7 极低风险 0.34